This is the latest recevied weather packets stored in our database for station/object WY7ATH-2. If no packets are shown the sender has not sent any weather packets the latest 10 day(s).
| Time | Temp. | Humidity | Pressure | Rain* | Wind** | Luminosity | Snow |
|---|---|---|---|---|---|---|---|
| 1788233024 | 17.22° C | - | - | 0 mm | 3.58 m/s, 256° | - | - |
| 1788232427 | 17.22° C | - | - | 0 mm | 0 m/s | - | - |
| 1788231830 | 17.78° C | - | - | 0 mm | 0 m/s | - | - |
| 1788231233 | 17.22° C | - | - | 0 mm | 1.79 m/s, 253° | - | - |
| 1788227647 | 18.33° C | - | - | 0.25 mm | 0 m/s | - | - |
| 1788226450 | 19.44° C | - | - | 0.25 mm | 0.45 m/s, 255° | - | - |
| 1788225853 | 19.44° C | - | - | 0.25 mm | 4.02 m/s, 210° | - | - |
| 1788224658 | 20.56° C | - | - | 0.25 mm | 1.79 m/s, 235° | - | - |
| 1788224062 | 21.11° C | - | - | 2.29 mm | 0 m/s | - | - |
| 1788223461 | 21.67° C | - | - | 2.29 mm | 0 m/s | - | - |
| 1788221073 | 22.78° C | - | - | 2.29 mm | 0 m/s | - | - |
| 1788219278 | 23.89° C | - | - | 4.06 mm | 0.45 m/s, 173° | - | - |
| 1788218084 | 26.11° C | - | - | 4.06 mm | 0 m/s | - | - |
| 1788216890 | 27.22° C | - | - | 5.33 mm | 1.79 m/s, 243° | - | - |
| 1788216289 | 26.11° C | - | - | 5.33 mm | 4.02 m/s, 158° | - | - |
| 1788213901 | 25.56° C | - | - | 5.33 mm | 0 m/s | - | - |
| 1788213304 | 25° C | - | - | 9.65 mm | 0 m/s | - | - |
| 1788211510 | 26.11° C | - | - | 9.65 mm | 0 m/s | - | - |
| 1788210913 | 26.67° C | - | - | 9.65 mm | 0 m/s | - | - |
| 1788209118 | 28.89° C | - | - | 13.21 mm | 0 m/s | - | - |
| 1788208523 | 28.33° C | - | - | 13.21 mm | 0 m/s | - | - |
| 1788206730 | 28.33° C | - | - | 13.21 mm | 2.68 m/s, 298° | - | - |
| 1788206133 | 28.33° C | - | - | 20.57 mm | 0 m/s | - | - |
| 1788205532 | 27.78° C | - | - | 20.57 mm | 0 m/s | - | - |
| 1788204935 | 28.89° C | - | - | 20.57 mm | 2.24 m/s, 245° | - | - |
* Rain latest hour (hover to see other rain measurements)
** Current wind speed in m/s (hover to see current wind gust speed)